Skip Page Navigation
NASA JPL Caltech
NASA Logo - Jet Propulsion Laboratory + View the NASA Portal
+ Center for Near-Earth Object Studies
JPL Home Earth Solar System Stars & Galaxies Technology
JPL Solar System Dynamics
BODIES ORBITS EPHEMERIDES TOOLS PHYSICAL DATA DISCOVERY FAQ SITE MAP
JPL Small-Body Database Browser
Search: [ help ]  
(2012 TV51)
Classification: Jupiter Trojan          SPK-ID: 3610140
Ephemeris | Orbit Diagram | Orbital Elements | Mission Design | Physical Parameters ]

[ show orbit diagram ]
Orbital Elements at Epoch 2456208.5 (2012-Oct-08.0) TDB
Reference: JPL 5 (heliocentric ecliptic J2000)
 Element Value Uncertainty (1-sigma)   Units 
e .04374331106487066 1.0969  
a 4.983609380268583 1.3598 au
q 4.765609804921688 6.5801 au
i 25.83643678865489 4.5653 deg
node 263.1718677020352 24.568 deg
peri 307.6325397203771 2763.4 deg
M 161.8390844903873 3055.9 deg
tp 2454381.681794487228
(2007-Oct-08.18179449)
34829 TDB
period 4063.632441171282
11.13
1663.2
4.554
d
yr
n .08859068953988253 0.036259 deg/d
Q 5.201608955615479 1.4193 au
  Orbit Determination Parameters
   # obs. used (total)      6  
   data-arc span      3 days  
   first obs. used      2012-10-07  
   last obs. used      2012-10-10  
   planetary ephem.      DE431  
   SB-pert. ephem.      SB431-N16  
   condition code      9  
   norm. resid. RMS      .24686  
   source      ORB  
   producer      Otto Matic  
   solution date      2019-Dec-18 08:41:06  

Additional Information
 Earth MOID = 3.79781 au 
 Jupiter MOID = .0046128 au 
 T_jup = 2.804 
[ show covariance matrix ]

Ephemeris | Orbit Diagram | Orbital Elements | Mission Design | Physical Parameters ]

Physical Parameter Table
Parameter Symbol Value Units Sigma Reference Notes
absolute magnitude H 13.712   .21342 5 autocmod 2.8
Ephemeris | Orbit Diagram | Orbital Elements | Mission Design | Physical Parameters ]
ABOUT SSD CREDITS/AWARDS PRIVACY/COPYRIGHT GLOSSARY LINKS
FirstGov 2020-Aug-11 08:18 UT
(server date/time)  
NASA Home Page
Site Manager:   Ryan S. Park
Webmaster  Alan B. Chamberlin